Location: Jaite
(41.2884°N, 81.5737°W)
Time: 00:08:02
(UTC+00:00)

Cosmos 2344 - Pass Details

Date: 15 November 2025
Orbit: 1197 x 3045 km, 63.3° (Epoch: 11 December)

Event Time Altitude Azimuth Distance (km) Brightness Sun altitude
Rises 01:36:37 0° 324° (NW) 4,299 6.9 -39.2°
Reaches altitude 10° 01:39:08 10° 324° (NW) 3,437 6.2 -39.7°
Enters shadow 01:45:44 65° 322° (NW) 1,731 4.2 -40.9°
